Regional Weather Roundup
Issued by NWS

Home | Current Version | Previous Version | Graphics & Text | Print | Product List | Glossary On
Versions: 1 2 3 4 5 6 7 8 9 10 11 12 13 14 15 16 17 18 19 20 21 22 23 24 25 26 27 28 29 30 31 32 33 34 35 36 37 38 39 40 41 42 43 44 45 46 47 48 49 50
000
ASUS43 KLOT 252106
RWRIL

ILLINOIS REGIONAL WEATHER ROUNDUP
NATIONAL WEATHER SERVICE CHICAGO/ROMEOVILLE IL
300 PM CST TUE NOV 25 2014

NOTE: "FAIR" INDICATES FEW OR NO CLOUDS BELOW 12,000 FEET WITH NO
SIGNIFICANT WEATHER AND/OR OBSTRUCTIONS TO VISIBILITY.

* THESE STATIONS ARE NOT UNDER NWS QUALITY CONTROL. THEY ALSO MAY NOT
  REPORT WEATHER SUCH AS PRECIPITATION OR FOG.

ILZ001-002-007-009-015-016-024-252200-
NORTHWEST ILLINOIS

CITY           SKY/WX    TMP DP  RH WIND       PRES   REMARKS
MOLINE         SUNNY     26  17  68 SW8       30.15R WCI  18
STERLING*      SUNNY     25  14  63 W8        30.15S WCI  16
SAVANNA*       SUNNY     25  16  69 SW7       30.15R WCI  17
$$

ILZ003-004-008-010-011-017-018-252200-
NORTH CENTRAL ILLINOIS

CITY           SKY/WX    TMP DP  RH WIND       PRES   REMARKS
ROCKFORD       MOSUNNY   22  14  71 SW9       30.16R WCI  12
FREEPORT*      SUNNY     20  15  78 SW12      30.14R WCI   8
ROCHELLE*      MOSUNNY   20  15  81 W12       30.16R WCI   8
DE KALB*       MOSUNNY   20  15  79 SW9       30.14R WCI   9
PERU*          CLOUDY    25  19  79 SW7       30.17S WCI  17
$$

ILZ005-006-012>014-019>023-252200-
NORTHEAST ILLINOIS

CITY           SKY/WX    TMP DP  RH WIND       PRES   REMARKS
CHICAGO-OHARE  MOSUNNY   25  16  68 W12       30.13R WCI  14
CHICAGO-MIDWAY PTSUNNY   26  18  71 W13       30.15R WCI  15
AURORA         PTSUNNY   24  16  71 SW12      30.15R WCI  13
LANSING*       CLOUDY    26  19  74 W12       30.15S WCI  15
JOLIET*        CLOUDY    25  17  72 W7        30.16S WCI  17
WAUKEGAN       MOSUNNY   25  16  68 SW8       30.11R WCI  16
DUPAGE AIRPORT PTSUNNY   23  16  74 SW14      30.14R WCI  11
KANKAKEE*      CLOUDY   N/A N/A N/A W12       30.16S
WHEELING       MOSUNNY   26  16  65 W10       30.15R WCI  16
MORRIS*        CLOUDY    24  19  81 SW8       30.16R WCI  16
ROMEOVILLE*    CLOUDY    24  18  78 W12       30.15R WCI  13
NORTHERLY ISL    N/A     26  17  68 S10         N/A  WCI  16
$$

LMZ740>746-252200-
SOUTHERN LAKE MICHIGAN

STATION/POSITION SKY/WX   TEMP    WIND        PRES    VSBY  WAVE
                          AIR SEA DIR/SP/G                  HT/PER
                          (F)     (DEG/KT/KT) (MB)    (MI)  (FT/S)
SOUTHERN BUOY              28 42  240/ 14/ 16 1020.4R         3/ 6
WAUKEGAN HARBOR            27     260/ 12/ 15   N/A
HARRISON CRIB              26     250/ 12/ 18   N/A
BURNHAM HARBOR             27     260/  7/ 13   N/A
CALUMET HARBOR             26     220/  9/ 13 1019.3R
MICHIGAN CITY              26     190/ 10/ 13   N/A
$$

ILZ025>027-034>036-040-047-049-050-058-095>099-252200-
WEST-CENTRAL ILLINOIS

CITY           SKY/WX    TMP DP  RH WIND       PRES   REMARKS
QUINCY         SUNNY     35  21  56 W7        30.13F WCI  29
GALESBURG*     SUNNY     28  22  77 SW6       30.15R WCI  21
MACOMB*        SUNNY     31  25  76 W3        30.17S
JACKSONVILLE*  SUNNY     38  24  58 W7        30.14F WCI  32
PITTSFIELD*    SUNNY     37  22  55 W7        30.14F WCI  31
$$

ILZ028>032-037-038-041>044-048-051>054-059>061-252200-
CENTRAL ILLINOIS

CITY           SKY/WX    TMP DP  RH WIND       PRES   REMARKS
PONTIAC        CLOUDY    26  21  81 W10       30.15F WCI  16
BLOOMINGTON    CLOUDY    27  22  81 W13       30.15F WCI  16
DECATUR        CLOUDY    31  22  69 SW7       30.15F WCI  24
PEORIA         PTSUNNY   31  20  63 VRB6      30.15F WCI  25
LACON*         CLOUDY    26  19  75 W6        30.16S WCI  19
LINCOLN*       MOSUNNY   33  23  68 W3        30.16F
SPRINGFIELD    MOSUNNY   34  24  67 W7        30.15F WCI  28
TAYLORVILLE    MOSUNNY   32  27  80 W6        30.15S WCI  26
$$

ILZ033-039-045-046-055>057-062-063-252200-
EAST-CENTRAL ILLINOIS

CITY           SKY/WX    TMP DP  RH WIND       PRES   REMARKS
CHAMPAIGN      CLOUDY    27  20  75 W12       30.16S WCI  17
DANVILLE*      CLOUDY    27  21  80 W10       30.13S WCI  17
RANTOUL*       CLOUDY    28  23  79 W10       30.15S WCI  19
MATTOON        PTSUNNY   30  22  72 NW7       30.15S WCI  23
PARIS*         CLOUDY    29  24  81 W7        30.18R WCI  22
$$

ILZ079-100>102-252200-
SOUTHWEST ILLINOIS

CITY           SKY/WX    TMP DP  RH WIND       PRES   REMARKS
ALTON          SUNNY     37  23  56 W12       30.15S WCI  30
BELLEVILLE     SUNNY     41  24  51 VRB1      30.15S
CAHOKIA*       SUNNY     41  24  51 NW7       30.15S
SPARTA*        SUNNY     38  26  60 CALM      30.16S
$$

ILZ064>066-069>071-074>076-080>082-084>086-088>090-092>094-252200-
SOUTH-CENTRAL ILLINOIS

CITY           SKY/WX    TMP DP  RH WIND       PRES   REMARKS
CARBONDALE     SUNNY     40  25  55 CALM      30.16S
CAIRO*         SUNNY     46  27  47 W5        30.15F
EFFINGHAM*     SUNNY     34  22  60 NW5       30.16S WCI  30
MARION         MOSUNNY   41  27  56 NW7       30.17S
MT. VERNON     SUNNY     37  25  60 CALM      30.17S
CENTRALIA*     SUNNY     35  26  67 NW5       30.16R WCI  31
SALEM*           N/A     37  27  67 NE3       30.16S
METROPOLIS*    SUNNY     44  27  52 SW5         N/A
$$

ILZ067-068-072-073-078-083-087-091-252200-
SOUTHEAST ILLINOIS

CITY           SKY/WX    TMP DP  RH WIND       PRES   REMARKS
LAWRENCEVILLE  CLOUDY    33  26  75 W8        30.19R WCI  26
FLORA*         MOSUNNY   32  25  75 CALM      30.18S
FAIRFIELD*     CLOUDY    35  26  68 N7        30.17S WCI  29
HARRISBURG*    SUNNY     40  28  61 W6        30.17F
ROBINSON*      CLOUDY    32  25  76 N8        30.19S WCI  24
CARMI*         PTSUNNY   38  30  74 NW6       30.17R WCI  33
$$

ABBREVIATIONS USED IN REMARKS
   TC - TEMPERATURE IN CELSIUS
  WCI - WIND CHILL INDEX
   HX - HEAT INDEX
  VSB - VISIBILITY
$$



USA.gov is the U.S. government's official web portal to all federal, state and local government web resources and services.